Hourly Data Report for October 26, 2013

All times are specified in Local Standard Time (LST). Add 1 hour to adjust for Daylight Saving Time where and when it is observed.

QIKIQTARJUAQ A
NUNAVUT

67°32'48.000" N
64°01'54.000" W
5.50 m
2400577
YVM

Download Data

Hourly Data (October 2013)
Hourly Data Report for October 26, 2013
Temp Definition
°C
Dew Point Temp Definition
°C
Rel Hum Definition
%
Wind Dir Definition
10's deg

Wind Spd Definition
km/h
Visibility Definition
km
Stn Press Definition
kPa
Hmdx Definition


Wind Chill Definition


Weather Definition


TIME
00:00 Legend Double Dagger -10.1 -12.8 81 19 11 16.1 100.12   -16 LegendNANA
01:00 Legend Double Dagger -10.0 -13.0 79 16 8 16.1 100.11   -14 LegendNANA
02:00 Legend Double Dagger -11.0 -13.5 82 14 11 16.1 100.10   -17 LegendNANA
03:00 Legend Double Dagger -9.9 -12.2 83 17 8 16.1 100.08   -14 LegendNANA
04:00 Legend Double Dagger -8.6 -11.4 80 16 5 16.1 100.09   -11 LegendNANA
05:00 Legend Double Dagger -10.5 -12.6 85 15 8 16.1 100.08   -15 LegendNANA
06:00 Legend Double Dagger -9.5 -11.6 85 16 8 16.1 100.08   -14 LegendNANA
07:00 Legend Double Dagger -9.4 -11.5 85 17 9 16.1 100.08   -14 LegendNANA
08:00 Legend Double Dagger -10.4 -12.1 88 13 8 16.1 100.05   -15 LegendNANA
09:00 Legend Double Dagger -9.8 -11.9 85 14 9 16.1 100.04   -15 LegendNANA
10:00 Legend Double Dagger -9.2 -11.4 84 14 9 16.1 100.03   -14 LegendNANA
11:00 Legend Double Dagger -8.8 -11.5 81 17 8 16.1 100.04   -13 LegendNANA
12:00 Legend Double Dagger -7.5 -10.1 82 19 9 16.1 100.04   -12 LegendNANA
13:00 Legend Double Dagger -5.7 -8.8 79 25 11 16.1 100.04   -10 LegendNANA
14:00 Legend Double Dagger -6.9 -9.3 83   0 16.1 100.05     LegendNANA
15:00 Legend Double Dagger -6.9 -9.8 80 19 13 16.1 100.06   -12 LegendNANA
16:00 Legend Double Dagger -7.0 -9.4 83 19 13 16.1 100.06   -13 LegendNANA
17:00 Legend Double Dagger -8.0 -10.4 83 16 9 16.1 100.06   -13 LegendNANA
18:00 Legend Double Dagger -7.8 -10.5 81 19 13 16.1 100.04   -14 LegendNANA
19:00 Legend Double Dagger -8.8 -11.1 83 18 8 16.1 100.06   -13 LegendNANA
20:00 Legend Double Dagger -7.8 -10.5 81 20 15 16.1 100.08   -14 LegendNANA
21:00 Legend Double Dagger -8.4 -10.6 84 19 13 16.1 100.07   -14 LegendNANA
22:00 Legend Double Dagger -8.6 -11.1 82 17 8 16.1 100.07   -13 LegendNANA
23:00 Legend Double Dagger -8.8 -11.7 80 20 15 16.1 100.08   -15 LegendNANA

Notes on Data Quality.

Legend

  • E = Estimated
  • M = Missing
  • NA = Not Available
  • ‡ = Partner data that is not subject to review by the National Climate Archives
Date modified: